Regional Weather Roundup
Issued by NWS

Home | Current Version | Previous Version | Graphics & Text | Print | Product List | Glossary On
Versions: 1 2 3 4 5 6 7 8 9 10 11 12 13 14 15 16 17 18 19 20 21 22 23 24 25 26 27 28 29 30 31 32 33 34 35 36 37 38 39 40 41 42 43 44 45 46 47 48 49 50
000
ASUS43 KLOT 290404
RWRIL

ILLINOIS REGIONAL WEATHER ROUNDUP
NATIONAL WEATHER SERVICE CHICAGO/ROMEOVILLE IL
1100 PM CDT SAT MAY 28 2016

NOTE: "FAIR" INDICATES FEW OR NO CLOUDS BELOW 12,000 FEET WITH NO
SIGNIFICANT WEATHER AND/OR OBSTRUCTIONS TO VISIBILITY.

* THESE STATIONS ARE NOT UNDER NWS QUALITY CONTROL. THEY ALSO MAY NOT
  REPORT WEATHER SUCH AS PRECIPITATION OR FOG.

ILZ001-002-007-009-015-016-024-290500-
NORTHWEST ILLINOIS

CITY           SKY/WX    TMP DP  RH WIND       PRES   REMARKS
MOLINE         PTCLDY    71  59  65 SW8       29.91R
STERLING*      CLOUDY    71  66  84 VRB3      29.94R
$$

ILZ003-004-008-010-011-017-018-290500-
NORTH CENTRAL ILLINOIS

CITY           SKY/WX    TMP DP  RH WIND       PRES   REMARKS
ROCKFORD       CLOUDY    69  65  86 SE3       29.95R
FREEPORT*      CLOUDY    67  64  88 SW6       29.94R
ROCHELLE*      CLOUDY    70  65  84 S13       29.94R
$$

ILZ005-006-012>014-019>023-290500-
NORTHEAST ILLINOIS

CITY           SKY/WX    TMP DP  RH WIND       PRES   REMARKS
CHICAGO-OHARE  CLOUDY    65  63  93 NW14      29.96R THUNDER FOG
CHICAGO-MIDWAY MOCLDY    77  64  64 SW12      29.95R
AURORA         CLOUDY    67  63  87 SE7       29.95S
LANSING*       MOCLDY    74  64  72 S15       29.96S
WAUKEGAN       CLOUDY    64  61  90 SW21G29   29.96R THUNDER
DUPAGE AIRPORT CLOUDY    65  62  90 SE3       29.95F
WHEELING       LGT RAIN  66  63  90 SW9       29.98R FOG
NORTHERLY ISL    N/A     76  63  64 S10         N/A
NORTHERLY ISL    N/A     76  63  64 S10         N/A
$$

LMZ740>746-290500-
SOUTHERN LAKE MICHIGAN

STATION/POSITION SKY/WX   TEMP    WIND        PRES    VSBY  WAVE
                          AIR SEA DIR/SP/G                  HT/PER
                          (F)     (DEG/KT/KT) (MB)    (MI)  (FT/S)
SOUTHERN BUOY              59 50  160/ 12/ 14 1012.7          2/ 4
WILMETTE HARBOR            69 52  220/ 14/ 21   N/A           2/ 3
HARRISON CRIB              76     200/ 18/ 19   N/A
BURNHAM HARBOR             76     200/ 10/ 17   N/A
CALUMET HARBOR             77                 1013.4R
BURNS HARBOR               76     180/ 11/ 18 1014.6R
MICHIGAN CITY              76     160/ 17/ 19   N/A
MICHIGAN CITY 6N           68 57  190/ 10/ 12   N/A           1/ 3
ST. JOSEPH                 70 61  160/ 10/ 14   N/A           2/ 3
$$

ILZ025>027-034>036-040-047-049-050-058-095>099-290500-
WEST-CENTRAL ILLINOIS

CITY           SKY/WX    TMP DP  RH WIND       PRES   REMARKS
QUINCY         CLOUDY    69  61  75 SW8       29.96S
MACOMB*        CLOUDY    71  62  72 W13       29.97R
PITTSFIELD*    MOCLDY    71  66  84 SW6       29.99R
$$

ILZ028>032-037-038-041>044-048-051>054-059>061-290500-
CENTRAL ILLINOIS

CITY           SKY/WX    TMP DP  RH WIND       PRES   REMARKS
BLOOMINGTON    TSTM      63  62  96 W12       30.07R FOG
DECATUR        PTCLDY    73  66  78 S12       29.99R
PEORIA         CLOUDY    68  64  87 S6        29.97R
SPRINGFIELD    MOCLDY    76  67  73 SW6       29.98R
TAYLORVILLE    NOT AVBL
$$

ILZ033-039-045-046-055>057-062-063-290500-
EAST-CENTRAL ILLINOIS

CITY           SKY/WX    TMP DP  RH WIND       PRES   REMARKS
CHAMPAIGN      CLEAR     72  65  78 S10       30.00R
MATTOON        CLEAR     73  65  75 S12       30.00R
$$

ILZ079-100>102-290500-
SOUTHWEST ILLINOIS

CITY           SKY/WX    TMP DP  RH WIND       PRES   REMARKS
BELLEVILLE     PTCLDY    75  70  83 S5        30.00R
CAHOKIA*       LGT RAIN  77  65  66 SW12G24   29.98S
SPARTA*        PTCLDY    72  67  84 S6        30.04S
$$

ILZ064>066-069>071-074>076-080>082-084>086-088>090-092>094-290500-
SOUTH-CENTRAL ILLINOIS

CITY           SKY/WX    TMP DP  RH WIND       PRES   REMARKS
CARBONDALE     PTCLDY    69  66  90 CALM      30.05R
MT. VERNON     MOCLDY    70  64  83 S6        30.05S
SALEM*         MOCLDY    74  68  79 S9        30.01F
$$

ILZ067-068-072-073-078-083-087-091-290500-
SOUTHEAST ILLINOIS

CITY           SKY/WX    TMP DP  RH WIND       PRES   REMARKS
LAWRENCEVILLE  PTCLDY    72  67  84 S8        30.04R
FLORA*         PTCLDY    72  68  88 S6        30.03S
HARRISBURG*    PTCLDY    71  69  91 CALM      30.04S
ROBINSON*      PTCLDY    69  65  89 S5        30.04S
$$

ABBREVIATIONS USED IN REMARKS
   TC - TEMPERATURE IN CELSIUS
  WCI - WIND CHILL INDEX
   HX - HEAT INDEX
  VSB - VISIBILITY
$$





USA.gov is the U.S. government's official web portal to all federal, state and local government web resources and services.